Location: Eimen
(51.8766°N, 9.7806°E)
Time: 09:16:00
(UTC+00:00)

Cosmos 2181 Rocket - Pass Details

Date: 23 May 2024
Orbit: 951 x 1015 km, 82.9° (Epoch: 23 June)

Event Time Altitude Azimuth Distance (km) Brightness Sun altitude
Rises 01:47:42 0° 349° (N) 3,750 7.8 -10.4°
Reaches altitude 10° 01:50:16 10° 349° (N) 2,789 7.0 -10.2°
Maximum altitude 01:56:41 85° 263° (W) 1,003 4.1 -9.6°
Drops below altitude 10° 02:02:58 10° 175° (S) 2,726 5.9 -9.0°
Sets 02:05:26 0° 175° (S) 3,661 6.6 -8.8°
